Showing default

LEMUR-2 CLARA, 68483

Orbit data source: Space-Track

LEMUR-2 CLARA, 68483 is a payload satellite owned by Spire (LU) in SSO that was launched on Mon, 30 Mar 2026 UTC via an FALCON 9 launch vehicle from the Air Force Western Test Range (AFWTR). Payload-class satellites include a variety of spacecraft equipped with specific instruments for various scientific and technological missions. These include communications satellites like Starlink; space stations such as the ISS; scientific satellites like the Hubble; Earth observation satellites from companies like Planet Labs, Umbra, and HawkEye 360; GPS; miniature CubeSats for education and research; and military/defense satellites.

Loading next visibility...
Identifier
68483, 2026-067BV
Orbit
SSO
Country
Flag of LULU / LUXE
Related business
Manufacturer
Spire/Glasgow
Mission
Operational spacecraft
Bus & Motor
CUBESAT 3U, Unknown motor
Mass
7.6 kg wet, 7.6 kg dry
Launch date (UTC)
2026-03-30 (3 months ago)
Launch vehicle
FALCON 9
Launch site
Air Force Western Test Range (AFWTR)
Object type
Payload
Rocket body
Debris
Shape & HBR
Unknown shape, 0.2 m
Radar Cross Section
Medium (>0.1 m² and <1 m²)

Expand to show TLE details & history
Last TLE update: 2 days ago

TLE from 2 days ago
0 LEMUR-2 CLARA
1 68483U 26067BV  26171.42951716  .00003314  00000-0  32625-3 0  9994
2 68483  97.7642 129.7686 0001235 292.7054  67.4035 14.92755284 12213
Epoch: 2026-06-20T10:18Z
TLE epoch observation values (Epoch: 2026-06-20T10:18:30.282Z)
Latitude
Longitude
66.49816°
Altitude
592.061 km
Speed
7.564 km/s
True Right ascension
08h 39m 04s
True Declination
0° 00' 00"
Sunlit
Object was in daylight at epoch
Visualization orbit readout
Latitude
Unknown
Longitude
Unknown
Altitude
Unknown
Speed
Unknown
Apparent Right ascension
Unknown
Apparent Declination
Unknown
Sunlit
N/A
Visualization observer readout
Local Sidereal Time
13:49:12
Azimuth
Unknown
Elevation
Unknown
Doppler factor
Unknown
Orbital elements
Apogee altitude
587.227 km
Perigee altitude
585.507 km
Semi-major axis
6,964.504 km
Eccentricity
0.00012
Inclination
97.7642°
RAAN
129.7686°
Arg. of periapsis
292.7054°
True anomaly
67.41657°
Mean anomaly
67.4035°
Eccentric anomaly
67.41003°
Mean motion
3.73429 °/min
Orbital period
96.4 mins
BSTAR
0.00032625
Loading maneuver chart data...
Computing Atmospheric mass density...
Loading historical data...
Loading historical data...
Loading historical data...
Loading historical data...
Loading historical data...
Loading historical data...
Loading historical data...

Documentation

Showing up to 5 results
|